Orbital Elements at Epoch 2459000.5 (2020-May-31.0) TDB
Reference: JPL 16 (heliocentric ecliptic J2000)
Element | Value | Uncertainty (1-sigma) | Units |
e | .2876848435913992 | 5.8798e-08 | |
a | 2.653298647317032 | 3.4775e-08 | au |
q | 1.889984840962361 | 1.6283e-07 | au |
i | 12.99498724879883 | 6.7936e-06 | deg |
node | 98.51069136519055 | 2.829e-05 | deg |
peri | 236.3418285837157 | 3.151e-05 | deg |
M | 274.9223294816593 | 2.2397e-05 | deg |
tp | 2459373.570337172951 (2021-Jun-08.07033717) | 0.00010414 | TDB |
period | 1578.62010753232 4.32 | 3.1035e-05 8.497e-08 | d yr |
n | .2280472662689871 | 4.4833e-09 | deg/d |
Q | 3.416612453671704 | 4.478e-08 | au |
|
| | Orbit Determination Parameters
Additional Information
|